Regional Weather Roundup
Issued by NWS Charleston, SC

Current Version | Previous Version | Graphics & Text | Print | Product List | Glossary On
Versions: 1 2 3 4 5 6 7 8 9 10 11 12 13 14 15 16 17 18 19 20 21 22 23 24 25 26 27 28 29 30 31 32 33 34 35 36 37 38 39 40 41 42 43 44 45 46 47 48 49 50
000 ASUS42 KCHS 281328 RWRCHS REGIONAL WEATHER ROUNDUP NATIONAL WEATHER SERVICE CHARLESTON SC 900 AM EDT WED SEP 28 2016 NOTE: "FAIR" INDICATES FEW OR NO CLOUDS BELOW 12,000 FEET WITH NO SIGNIFICANT WEATHER AND/OR OBSTRUCTIONS TO VISIBILITY. NOT ALL STATIONS ARE QUALITY CONTROLLED. USE DATA WITH CAUTION... ESPECIALLY DEWPOINT OBSERVATIONS. SCZ027-030-031-034>040-042>050-281400- ...SOUTHEAST SOUTH CAROLINA... CITY SKY/WX TMP DP RH WIND PRES REMARKS N CHARLESTON MOSUNNY 78 73 84 SW8 29.95R WATERFRONT PRK N/A 78 75 90 VRB2 29.92S MOUNT PLEASANT FAIR 79 77 94 S6 29.96R JOHNS ISLAND FAIR 81 77 89 SW5 29.96R PINOPOLIS N/A 75 73 94 SW5 29.87R MONCKS CORNER FAIR 77 72 83 SW9 29.95S SUMMERVILLE NOT AVBL BEAUFORT MCAS MOSUNNY 78 73 84 S6 29.96R BEAUFORT ARPT FAIR 79 73 83 SW3 29.96R HILTON HEAD IS NOT AVBL WALTERBORO SUNNY 77 77 100 SW7 29.97R ALLENDALE FAIR 77 72 83 VRB5 29.94S ...SOUTHERN MIDLANDS AND PEE DEE... CITY SKY/WX TMP DP RH WIND PRES REMARKS GEORGETOWN FAIR 75 72 88 SW6 29.97R KINGSTREE FAIR 77 70 78 S5 29.96R ORANGEBURG SUNNY 73 71 93 S6 29.94R BARNWELL NOT AVBL AIKEN FAIR 73 68 83 S8 29.98R MANNING FAIR 75 70 83 S3 29.95R COLUMBIA CLOUDY 74 68 81 CALM 29.92R SUMTER PTSUNNY 74 70 86 S6 29.91R FLORENCE SUNNY 75 71 87 SW6 29.94R MYRTLE BEACH MOSUNNY 79 66 65 SW6 29.97R N MYRTLE BEACH SUNNY 77 72 84 NW3 29.95R $$ GAZ063-065-086>088-099>101-113>116-118-119-134>141-150-281400- ...SOUTHEAST GEORGIA... CITY SKY/WX TMP DP RH WIND PRES REMARKS SAVANNAH ARPT PTSUNNY 75 70 84 SW3 29.96R HUNTER AAF MOSUNNY 76 76 100 SW5 29.94R FORT STEWART SUNNY 72 70 93 CALM 29.94R STATESBORO MOSUNNY 78 73 84 CALM 29.95S SYLVANIA NOT AVBL CLAXTON FAIR 77 74 91 CALM 29.96S ...CSRA...CENTRAL AND FAR SOUTHEAST GEORGIA... CITY SKY/WX TMP DP RH WIND PRES REMARKS THOMSON SUNNY 75 71 89 CALM 29.98R AUGUSTA-BUSH SUNNY 72 69 90 S3 29.93R AUGUSTA-DANIEL SUNNY 74 66 76 S6 29.94R SWAINSBORO FAIR 73 70 88 CALM 29.96S VIDALIA MOSUNNY 75 73 94 S6 29.96S EASTMAN FAIR 76 73 87 CALM 29.98S HAZLEHURST FAIR 76 75 97 N5 29.96R ALMA MOSUNNY 72 70 93 W5 29.96R WAYCROSS MOSUNNY 78 75 90 W5 29.97S JESUP FAIR 75 73 94 CALM 29.98R BAXLEY FAIR 73 73 100 S3 29.96S BRUNSWICK SUNNY 79 75 89 CALM 29.98R SAINT SIMONS SUNNY 77 72 84 W6 29.96R $$ SCZ027-028-034-036>038-045-046-048>050-GAZ119-141-281400- ...LAKE AND SUPPLEMENTAL COASTAL OBSERVATIONS... STATION/POSITION TIME TEMP WIND PRES WAVE SWELL AIR SEA DIR/SP/G HT/PER HT/PER/DIR (UTC) (F) (DEG/KT/KT) (MB) (FT/S) (FT/S/D) WINYAH BAY 1245 77 220/ 4 1013.0S LAKE MURRAY 1250 74 250/ 2/ 4 1012.9R ACE BASIN NERRS 1245 76 CALM 1014.0S FORT PULASKI 1300 78 81 230/ 5/ 8 1014.9 SAPELO ISLAND 1300 78 240/ 3 1015.0 $$ ANZ835-935-AMZ111-154-330-350-352-354-370-450-454-472-281400- ...C-MAN AND BUOY OBSERVATIONS... STATION/POSITION TIME TEMP WIND PRES WAVE SWELL AIR SEA DIR/SP/G HT/PER HT/PER/DIR (UTC) (F) (DEG/KT/KT) (MB) (FT/S) (FT/S/D) BUOY 41004 1250 81 82 230/ 4/ 6 1014.0R 3/11 3/120/11 BUOY 41008 1250 81 82 210/ 8/ 10 1014.1R 2/12 2/110/12 FOLLY BEACH CMAN 1300 80 210/ 10/ 11 1014.6R CAPERS NEARSHORE 1208 80 81 230/ 8/ 10 1013.7R FRIPP NEARSHORE 1308 81 81 240/ 8/ 12 1014.5R STATION/POSITION TIME TEMP WIND PRES WAVE SWELL AIR SEA DIR/SP/G HT/PER HT/PER/DIR (UTC) (F) (DEG/KT/KT) (MB) (FT/S) (FT/S/D) 5E ST. MARYS GA 1301 82 N/A 2/11 2/110/11 FRYING PAN BUOY 1310 81 82 140/ 2/ 4 1014.3 BUOY 41025 1250 76 84 360/ 10/ 12 1013.9R 4/ 7 3/100/ 7 CAPE LOOKOUT NC 1300 77 80/ 2/ 3 1014.0R BUOY 41002 1250 82 83 220/ 8/ 10 1014.9R 4/11 3/ 60/11 BUOY 41010 NOT AVBL ST AUGUSTINE FL 1300 79 83 240/ 3/ 4 1016.2R $$

USA.gov is the U.S. government's official web portal to all federal, state and local government web resources and services.